THORAD AGENA D DEB, 4919

Orbit data source: Space-Track

THORAD AGENA D DEB, 4919 is space debris in SSO originally from a launch on Wed, 08 Apr 1970 UTC launched from the Air Force Western Test Range (AFWTR). Debris objects in space refer to the collection of defunct objects orbiting the Earth. Examples of debris include non-operational satellites, rocket bodies, and fragments generated from explosions, collisions, or faulty payload assembly.

Loading next visibility...
Identifier
4919, 1970-025FR
Orbit
SSO
Country
Flag of USUS
Related business
Manufacturer
Unknown
Mission
Spacecraft
Bus & Motor
Unknown
Mass
Unknown
Launch date (UTC)
1970-04-08 (56 years ago)
Launch vehicle
Unknown
Launch site
Air Force Western Test Range (AFWTR)
Object type
Payload
Rocket body
Debris
Shape & HBR
Unknown shape, 0.1 m
Radar Cross Section
Small (<0.1 m²)

Expand to show TLE details & history
Last TLE update: 20 hours ago

TLE from 20 hours ago
0 THORAD AGENA D DEB
1 04919U 70025FR  26208.22853012  .00001826  00000-0  87622-3 0  9993
2 04919 100.0609 314.6989 0038314 347.0774  12.9413 14.20112989856121
Epoch: 2026-07-27T05:29Z
TLE epoch observation values (Epoch: 2026-07-27T05:29:05.002Z)
Latitude
0.00001°
Longitude
-72.48706°
Altitude
800.942 km
Speed
7.467 km/s
True Right ascension
20h 58m 47s
True Declination
0° 00' 00"
Sunlit
Object was in full shadow at epoch
Visualization orbit readout
Latitude
Unknown
Longitude
Unknown
Altitude
Unknown
Speed
Unknown
Apparent Right ascension
Unknown
Apparent Declination
Unknown
Sunlit
N/A
Visualization observer readout
Local Sidereal Time
14:24:48
Azimuth
Unknown
Elevation
Unknown
Doppler factor
Unknown
Orbital elements
Apogee altitude
849.786 km
Perigee altitude
794.611 km
Semi-major axis
7,200.336 km
Eccentricity
0.00383
Inclination
100.0609°
RAAN
314.6989°
Arg. of periapsis
347.0774°
True anomaly
13.04009°
Mean anomaly
12.9413°
Eccentric anomaly
12.99065°
Mean motion
3.55234 °/min
Orbital period
101.34 mins
BSTAR
0.00087622

Documentation

Showing up to 5 results
|